FENGYUN 1C DEB, 29957

Orbit data source: Space-Track

FENGYUN 1C DEB, 29957 is space debris in SSO originally from a launch on Mon, 10 May 1999 UTC launched from the Taiyaun Space Center, China (TSC). Fengyun 1C debris stems from the Chinese weather satellite Fengyun-1C, which was intentionally destroyed by a Chinese anti-satellite missile in 2007. This event dramatically increased the amount of space debris, with thousands of trackable fragments posing hazards to satellites and human spaceflight. The Fengyun 1C debris cloud has become a focal point in discussions about space sustainability and the need for international regulations to prevent the creation of new debris.

Loading next visibility...
Identifier
29957, 1999-025KF
Orbit
SSO
Country
Flag of CNCN / PRC
Related business
Manufacturer
Unknown
Mission
Spacecraft
Bus & Motor
Unknown
Mass
Unknown
Launch date (UTC)
1999-05-10 (27 years ago)
Launch vehicle
Unknown
Launch site
Taiyaun Space Center, China (TSC)
Object type
Payload
Rocket body
Debris
Shape & HBR
Sphere, 1.1 m
Radar Cross Section
0.031 m², Medium (>0.1 m² and < 1m²)

Expand to show TLE details & history
Last TLE update: 1 day ago

TLE from 1 day ago
0 FENGYUN 1C DEB
1 29957U 99025KF  26253.36626786  .00009711  00000-0  20371-2 0  9992
2 29957  98.9199  43.8882 0032090  74.0527 346.1708 14.59570659 14152
Epoch: 2026-09-10T08:47Z
TLE epoch observation values (Epoch: 2026-09-10T08:47:25.543Z)
Latitude
59.04984°
Longitude
-92.46203°
Altitude
682.495 km
Speed
7.533 km/s
True Right ascension
01h 55m 11s
True Declination
58° 53' 47"
Sunlit
Object was in daylight at epoch
Visualization orbit readout
Latitude
Unknown
Longitude
Unknown
Altitude
Unknown
Speed
Unknown
Apparent Right ascension
Unknown
Apparent Declination
Unknown
Sunlit
N/A
Visualization observer readout
Local Sidereal Time
08:23:50
Azimuth
Unknown
Elevation
Unknown
Doppler factor
Unknown
Orbital elements
Apogee altitude
714.364 km
Perigee altitude
668.99 km
Semi-major axis
7,069.814 km
Eccentricity
0.00321
Inclination
98.9199°
RAAN
43.8882°
Arg. of periapsis
74.0527°
True anomaly
346.08256°
Mean anomaly
346.1708°
Eccentric anomaly
346.12671°
Mean motion
3.65116 °/min
Orbital period
98.6 mins
BSTAR
0.0020371
Loading maneuver chart data...
Computing Atmospheric mass density...
Loading historical data...
Loading historical data...
Loading historical data...
Loading historical data...
Loading historical data...
Loading historical data...
Loading historical data...

Documentation

Showing up to 5 results
|